TimePDT,TemperatureF,Dew PointF,Humidity,Sea Level PressureIn,VisibilityMPH,Wind Direction,Wind SpeedMPH,Gust SpeedMPH,PrecipitationIn,Events,Conditions,WindDirDegrees,DateUTC
12:52 AM,57.9,51.1,78,29.81,-9999.0,SSW,6.9,-,N/A,,Unknown,210,2012-10-21 07:52:00
1:52 AM,57.9,51.1,78,29.81,-9999.0,SW,5.8,-,N/A,,Unknown,230,2012-10-21 08:52:00
2:52 AM,57.0,51.1,81,29.80,-9999.0,SW,4.6,-,N/A,,Unknown,220,2012-10-21 09:52:00
3:52 AM,57.0,52.0,83,29.79,-9999.0,SW,4.6,-,N/A,,Unknown,230,2012-10-21 10:52:00
4:52 AM,57.9,51.1,78,29.80,-9999.0,SW,3.5,-,N/A,,Unknown,230,2012-10-21 11:52:00
5:52 AM,57.9,51.1,78,29.81,-9999.0,SW,5.8,-,N/A,,Unknown,230,2012-10-21 12:52:00
6:52 AM,57.0,51.1,81,29.82,-9999.0,SW,4.6,-,N/A,,Unknown,220,2012-10-21 13:52:00
7:52 AM,57.9,51.1,78,29.84,-9999.0,SSW,3.5,-,N/A,,Unknown,210,2012-10-21 14:52:00
8:52 AM,57.0,53.1,87,29.86,-9999.0,SW,6.9,-,0.01,,Unknown,220,2012-10-21 15:52:00
9:52 AM,57.0,54.0,89,29.87,-9999.0,SW,5.8,-,0.01,,Unknown,230,2012-10-21 16:52:00
10:52 AM,57.9,54.0,87,29.87,-9999.0,SSW,10.4,-,N/A,,Unknown,210,2012-10-21 17:52:00
11:52 AM,60.1,54.0,80,29.86,-9999.0,WSW,12.7,-,N/A,,Unknown,240,2012-10-21 18:52:00
12:52 PM,63.0,52.0,67,29.84,-9999.0,WSW,10.4,-,N/A,,Unknown,250,2012-10-21 19:52:00
1:52 PM,62.1,51.1,67,29.82,-9999.0,WSW,9.2,-,N/A,,Unknown,240,2012-10-21 20:52:00
2:52 PM,63.0,51.1,65,29.81,-9999.0,SW,12.7,-,N/A,,Unknown,230,2012-10-21 21:52:00
3:52 PM,61.0,51.1,70,29.82,-9999.0,WSW,10.4,-,N/A,,Unknown,240,2012-10-21 22:52:00
4:52 PM,61.0,52.0,72,29.81,-9999.0,SW,8.1,-,N/A,,Unknown,220,2012-10-21 23:52:00
5:52 PM,60.1,52.0,75,29.82,-9999.0,WSW,9.2,-,N/A,,Unknown,240,2012-10-22 00:52:00
6:52 PM,57.9,52.0,81,29.84,-9999.0,SW,9.2,-,N/A,,Unknown,230,2012-10-22 01:52:00
7:52 PM,57.9,53.1,84,29.85,-9999.0,SW,10.4,-,N/A,,Unknown,220,2012-10-22 02:52:00
8:52 PM,55.9,52.0,87,29.85,-9999.0,SW,6.9,-,N/A,,Unknown,220,2012-10-22 03:52:00
9:52 PM,55.9,53.1,90,29.86,-9999.0,SW,8.1,-,N/A,,Unknown,220,2012-10-22 04:52:00
10:52 PM,55.9,52.0,87,29.87,-9999.0,SW,8.1,-,N/A,,Unknown,230,2012-10-22 05:52:00
11:52 PM,55.0,52.0,89,29.86,-9999.0,SW,4.6,-,N/A,,Unknown,230,2012-10-22 06:52:00